Location: *
(55.5817°S, 142.4781°W)
Time: 07:34:36
(UTC+00:00)

GEOS 3 Rocket - Pass Details

Date: 29 April 2025
Orbit: 784 x 829 km, 115.0° (Epoch: 23 May)

Event Time Altitude Azimuth Distance (km) Brightness Sun altitude
Rises 14:22:21 0° 126° (SE) 3,386 7.8 -21.2°
Reaches altitude 10° 14:24:46 10° 132° (SE) 2,445 6.8 -20.9°
Maximum altitude 14:29:44 42° 201° (SSW) 1,173 4.3 -20.2°
Enters shadow 14:31:18 33° 240° (WSW) 1,354 4.3 -19.9°
